CSC4173 ZUCK-ZUXC

Flight info

Callsign CSC4173
Flight time 1h 13m
Altitude 36100
Route NUDVO1Z NUDVO W30 URGUS W30 SAMIV W179 WLY W162 BOPTU BOP01A
Aircraft A319/M-SDE3FGHIRWY/LB1

Departure

Time 2026-04-27 10:10
Airport Chongqing Jiangbei International Airport (ZUCK)

Arrival

Time 2026-04-27 11:23
Airport Xichang Qingshan Airport (ZUXC)
Time Latitude Longitude Altitude Speed Heading
2026-04-27 10:01 29.71793 106.65695 1341 ft 0 kts 198°
2026-04-27 10:03 29.71801 106.65698 1341 ft 2 kts 198°
2026-04-27 10:03 29.71809 106.65700 1345 ft 0 kts 198°
2026-04-27 10:03 29.71816 106.65703 1347 ft 2 kts 198°
2026-04-27 10:04 29.71831 106.65709 1344 ft 2 kts 198°
2026-04-27 10:04 29.71846 106.65715 1343 ft 2 kts 199°
2026-04-27 10:04 29.71862 106.65721 1343 ft 2 kts 184°
2026-04-27 10:04 29.71878 106.65720 1342 ft 2 kts 153°
2026-04-27 10:05 29.71891 106.65709 1346 ft 2 kts 128°
2026-04-27 10:05 29.71899 106.65694 1345 ft 0 kts 108°
2026-04-27 10:05 29.71899 106.65695 1345 ft 0 kts 108°
2026-04-27 10:06 29.71879 106.65766 1342 ft 21 kts 108°
2026-04-27 10:06 29.71843 106.65901 1338 ft 28 kts 107°
2026-04-27 10:07 29.71785 106.66046 1336 ft 8 kts 160°
2026-04-27 10:07 29.71735 106.66039 1336 ft 6 kts 196°
2026-04-27 10:07 29.71703 106.66028 1337 ft 4 kts 196°
2026-04-27 10:07 29.71649 106.66010 1337 ft 15 kts 196°
2026-04-27 10:08 29.71526 106.65967 1337 ft 11 kts 192°
2026-04-27 10:08 29.71488 106.65990 1343 ft 9 kts 122°
2026-04-27 10:08 29.71472 106.66056 1342 ft 11 kts 105°
2026-04-27 10:08 29.71507 106.66167 1337 ft 12 kts 26°
2026-04-27 10:09 29.71559 106.66185 1336 ft 14 kts 16°
2026-04-27 10:09 29.71967 106.66326 1333 ft 81 kts 17°
2026-04-27 10:09 29.72399 106.66475 1330 ft 115 kts 17°
2026-04-27 10:09 29.73335 106.66799 1326 ft 162 kts 17°
2026-04-27 10:10 29.74426 106.67181 1849 ft 163 kts 17°
2026-04-27 10:10 29.75511 106.67559 2477 ft 163 kts 16°
2026-04-27 10:10 29.76596 106.67954 3109 ft 166 kts 21°
2026-04-27 10:10 29.77654 106.68635 3440 ft 187 kts 31°
2026-04-27 10:11 29.78835 106.69488 3776 ft 213 kts 32°
2026-04-27 10:11 29.80160 106.70456 4230 ft 238 kts 32°
2026-04-27 10:11 29.81632 106.71528 4739 ft 262 kts 32°
2026-04-27 10:11 29.83217 106.72675 5517 ft 273 kts 32°
2026-04-27 10:12 29.84716 106.74064 6392 ft 282 kts 50°
2026-04-27 10:12 29.85681 106.76037 7241 ft 287 kts 72°
2026-04-27 10:12 29.85914 106.78328 8127 ft 291 kts 96°
2026-04-27 10:12 29.85435 106.80606 9041 ft 294 kts 108°
2026-04-27 10:13 29.84823 106.82875 9906 ft 299 kts 108°
2026-04-27 10:13 29.84206 106.85183 10419 ft 314 kts 108°
2026-04-27 10:13 29.83540 106.87681 10659 ft 338 kts 108°
2026-04-27 10:13 29.82829 106.90357 10839 ft 361 kts 108°
2026-04-27 10:14 29.82084 106.93181 11239 ft 374 kts 108°
2026-04-27 10:14 29.81168 106.96005 11803 ft 378 kts 120°
2026-04-27 10:14 29.79538 106.98376 12442 ft 380 kts 140°
2026-04-27 10:14 29.77304 106.99973 13088 ft 380 kts 160°
2026-04-27 10:15 29.74726 107.00598 13729 ft 380 kts 180°
2026-04-27 10:15 29.72112 107.00199 14293 ft 380 kts 197°
2026-04-27 10:15 29.69571 106.99316 14878 ft 383 kts 199°
2026-04-27 10:15 29.67003 106.98415 15452 ft 387 kts 199°
2026-04-27 10:16 29.64421 106.97509 16034 ft 390 kts 199°
2026-04-27 10:16 29.61804 106.96652 16615 ft 394 kts 194°
2026-04-27 10:16 29.59098 106.96251 17151 ft 400 kts 184°
2026-04-27 10:16 29.56290 106.96215 17696 ft 405 kts 182°
2026-04-27 10:17 29.53466 106.96189 18266 ft 408 kts 182°
2026-04-27 10:17 29.50608 106.96156 18784 ft 411 kts 182°
2026-04-27 10:17 29.47743 106.96054 19264 ft 413 kts 187°
2026-04-27 10:17 29.44912 106.95463 19748 ft 413 kts 197°
2026-04-27 10:18 29.42220 106.94325 20211 ft 412 kts 207°
2026-04-27 10:18 29.39647 106.92847 20688 ft 414 kts 208°
2026-04-27 10:18 29.37064 106.91362 21133 ft 416 kts 208°
2026-04-27 10:18 29.34466 106.89873 21559 ft 419 kts 208°
2026-04-27 10:19 29.31852 106.88379 21963 ft 421 kts 208°
2026-04-27 10:19 29.29224 106.86876 22389 ft 423 kts 208°
2026-04-27 10:19 29.26583 106.85365 22805 ft 426 kts 208°
2026-04-27 10:19 29.23927 106.83846 23215 ft 428 kts 208°
2026-04-27 10:20 29.21289 106.82336 23578 ft 430 kts 208°
2026-04-27 10:20 29.18610 106.80799 23894 ft 431 kts 208°
2026-04-27 10:20 29.17663 106.80256 23993 ft 432 kts 208°
2026-04-27 10:21 29.17067 106.79915 24062 ft 433 kts 208°
2026-04-27 10:21 29.14371 106.78370 24349 ft 435 kts 208°
2026-04-27 10:21 29.11650 106.76815 24622 ft 437 kts 208°
2026-04-27 10:21 29.08925 106.75259 24917 ft 439 kts 208°
2026-04-27 10:22 29.06183 106.73696 25205 ft 441 kts 208°
2026-04-27 10:22 29.03454 106.72139 25474 ft 443 kts 208°
2026-04-27 10:22 29.01725 106.71153 25631 ft 445 kts 208°
2026-04-27 10:23 29.01164 106.70834 25682 ft 446 kts 208°
2026-04-27 10:23 28.99945 106.70140 25798 ft 447 kts 208°
2026-04-27 10:23 28.97184 106.68570 26075 ft 449 kts 208°
2026-04-27 10:24 28.94383 106.66979 26360 ft 451 kts 208°
2026-04-27 10:24 28.91568 106.65377 26620 ft 453 kts 208°
2026-04-27 10:24 28.88740 106.63768 26883 ft 455 kts 208°
2026-04-27 10:24 28.85900 106.62152 27129 ft 457 kts 208°
2026-04-27 10:25 28.83047 106.60528 27402 ft 459 kts 208°
2026-04-27 10:25 28.80181 106.58897 27665 ft 460 kts 208°
2026-04-27 10:25 28.77310 106.57265 27913 ft 462 kts 208°
2026-04-27 10:25 28.74392 106.55686 28131 ft 466 kts 204°
2026-04-27 10:26 28.71277 106.54578 28362 ft 471 kts 194°
2026-04-27 10:26 28.68059 106.54065 28608 ft 475 kts 185°
2026-04-27 10:26 28.64745 106.54035 28927 ft 476 kts 182°
2026-04-27 10:26 28.61431 106.54047 29300 ft 475 kts 182°
2026-04-27 10:27 28.58125 106.54052 29668 ft 475 kts 182°
2026-04-27 10:27 28.54820 106.54051 30034 ft 474 kts 182°
2026-04-27 10:27 28.51520 106.54050 30354 ft 473 kts 182°
2026-04-27 10:27 28.48226 106.54050 30646 ft 473 kts 182°
2026-04-27 10:28 28.44920 106.54052 30962 ft 474 kts 182°
2026-04-27 10:28 28.41626 106.54055 31275 ft 473 kts 182°
2026-04-27 10:28 28.38377 106.54056 31600 ft 473 kts 182°
2026-04-27 10:28 28.35081 106.54058 31958 ft 472 kts 183°
2026-04-27 10:29 28.31799 106.54063 32337 ft 471 kts 183°
2026-04-27 10:29 28.28517 106.54068 32710 ft 471 kts 183°
2026-04-27 10:29 28.25243 106.54075 33084 ft 470 kts 183°
2026-04-27 10:29 28.21967 106.54082 33473 ft 469 kts 184°
2026-04-27 10:30 28.18714 106.53945 33847 ft 464 kts 192°
2026-04-27 10:30 28.15605 106.53088 34183 ft 457 kts 205°
2026-04-27 10:30 28.12791 106.51502 34516 ft 449 kts 217°
2026-04-27 10:30 28.10414 106.49324 34881 ft 442 kts 229°
2026-04-27 10:31 28.08510 106.46639 35257 ft 435 kts 241°
2026-04-27 10:31 28.07159 106.43605 35644 ft 429 kts 251°
2026-04-27 10:31 28.06114 106.40450 35952 ft 427 kts 252°
2026-04-27 10:31 28.05068 106.37304 36032 ft 425 kts 252°
2026-04-27 10:32 28.02984 106.31067 36033 ft 422 kts 251°
2026-04-27 10:32 28.00907 106.24854 36036 ft 421 kts 251°
2026-04-27 10:33 27.98830 106.18653 36031 ft 421 kts 251°
2026-04-27 10:33 27.96759 106.12489 36033 ft 422 kts 251°
2026-04-27 10:34 27.94701 106.06275 36036 ft 422 kts 251°
2026-04-27 10:34 27.92664 106.00055 36037 ft 422 kts 251°
2026-04-27 10:35 27.90623 105.93839 36037 ft 422 kts 251°
2026-04-27 10:35 27.88569 105.87624 36032 ft 422 kts 251°
2026-04-27 10:36 27.86509 105.81409 36037 ft 422 kts 251°
2026-04-27 10:36 27.84447 105.75196 36036 ft 422 kts 251°
2026-04-27 10:37 27.82378 105.68981 36038 ft 422 kts 251°
2026-04-27 10:37 27.81083 105.62577 36037 ft 419 kts 269°
2026-04-27 10:38 27.81953 105.56141 36041 ft 420 kts 288°
2026-04-27 10:38 27.84272 105.50063 36036 ft 421 kts 292°
2026-04-27 10:39 27.86617 105.43996 36043 ft 421 kts 291°
2026-04-27 10:39 27.88966 105.37928 36039 ft 422 kts 292°
2026-04-27 10:40 27.91535 105.31965 36039 ft 422 kts 295°
2026-04-27 10:40 27.94255 105.26072 36025 ft 423 kts 295°
2026-04-27 10:41 27.97024 105.20196 36030 ft 424 kts 300°
2026-04-27 10:41 28.01037 105.15264 36025 ft 433 kts 320°
2026-04-27 10:42 28.06127 105.11627 36023 ft 436 kts 324°
2026-04-27 10:42 28.11309 105.08031 36027 ft 437 kts 324°
2026-04-27 10:43 28.16483 105.04419 36064 ft 436 kts 323°
2026-04-27 10:43 28.21627 105.00813 36058 ft 434 kts 323°
2026-04-27 10:44 28.26759 104.97216 36055 ft 433 kts 323°
2026-04-27 10:44 28.31877 104.93627 36045 ft 432 kts 323°
2026-04-27 10:45 28.36981 104.90031 36038 ft 432 kts 323°
2026-04-27 10:45 28.42095 104.86437 36035 ft 432 kts 323°
2026-04-27 10:46 28.47219 104.82861 36039 ft 432 kts 323°
2026-04-27 10:46 28.52343 104.79279 36035 ft 432 kts 323°
2026-04-27 10:47 28.57461 104.75700 36026 ft 432 kts 323°
2026-04-27 10:47 28.62580 104.72114 36023 ft 431 kts 323°
2026-04-27 10:48 28.67686 104.68534 36017 ft 431 kts 323°
2026-04-27 10:48 28.72792 104.64944 36013 ft 431 kts 323°
2026-04-27 10:49 28.77726 104.61177 36026 ft 424 kts 311°
2026-04-27 10:49 28.79521 104.58563 36018 ft 416 kts 295°
2026-04-27 10:49 28.80554 104.55512 36010 ft 411 kts 280°
2026-04-27 10:50 28.80779 104.52277 35999 ft 410 kts 265°
2026-04-27 10:50 28.80174 104.49093 36008 ft 412 kts 250°
2026-04-27 10:50 28.78799 104.46216 35999 ft 417 kts 238°
2026-04-27 10:50 28.77133 104.43500 36000 ft 418 kts 238°
2026-04-27 10:51 28.73780 104.38073 35982 ft 419 kts 238°
2026-04-27 10:51 28.70437 104.32661 36008 ft 421 kts 238°
2026-04-27 10:52 28.67389 104.27004 36014 ft 418 kts 246°
2026-04-27 10:52 28.64823 104.21058 36033 ft 419 kts 246°
2026-04-27 10:53 28.60947 104.12151 36046 ft 418 kts 246°
2026-04-27 10:54 28.58364 104.06212 36064 ft 418 kts 246°
2026-04-27 10:54 28.55783 104.00278 36062 ft 418 kts 246°
2026-04-27 10:55 28.53208 103.94358 36061 ft 418 kts 246°
2026-04-27 10:55 28.50626 103.88439 36058 ft 418 kts 246°
2026-04-27 10:56 28.48478 103.83512 36057 ft 419 kts 246°
2026-04-27 10:56 28.45883 103.77571 36064 ft 420 kts 246°
2026-04-27 10:57 28.43290 103.71659 36071 ft 420 kts 246°
2026-04-27 10:57 28.40684 103.65716 36071 ft 421 kts 246°
2026-04-27 10:58 28.38077 103.59767 36082 ft 420 kts 246°
2026-04-27 10:58 28.35469 103.53825 36084 ft 420 kts 246°
2026-04-27 10:59 28.32853 103.47891 36092 ft 421 kts 246°
2026-04-27 10:59 28.30229 103.41948 36091 ft 421 kts 246°
2026-04-27 11:00 28.26295 103.33033 36071 ft 422 kts 245°
2026-04-27 11:00 28.23677 103.27117 36063 ft 422 kts 245°
2026-04-27 11:01 28.21031 103.21157 36077 ft 424 kts 245°
2026-04-27 11:01 28.18371 103.15180 36082 ft 424 kts 245°
2026-04-27 11:02 28.15718 103.09212 36096 ft 424 kts 246°
2026-04-27 11:02 28.13067 103.03252 36069 ft 423 kts 246°
2026-04-27 11:03 28.10411 102.97293 36068 ft 424 kts 245°
2026-04-27 11:03 28.07746 102.91330 36063 ft 424 kts 245°
2026-04-27 11:04 28.05081 102.85370 36044 ft 424 kts 245°
2026-04-27 11:04 28.02413 102.79413 36000 ft 424 kts 245°
2026-04-27 11:05 28.01069 102.76421 35096 ft 431 kts 245°
2026-04-27 11:05 27.99699 102.73369 34236 ft 438 kts 245°
2026-04-27 11:05 27.98317 102.70287 33370 ft 441 kts 245°
2026-04-27 11:05 27.96924 102.67181 32438 ft 444 kts 244°
2026-04-27 11:06 27.95520 102.64053 31430 ft 448 kts 244°
2026-04-27 11:06 27.94120 102.60939 30490 ft 451 kts 244°
2026-04-27 11:06 27.92693 102.57757 29313 ft 456 kts 245°
2026-04-27 11:06 27.91587 102.54393 28104 ft 459 kts 255°
2026-04-27 11:07 27.91045 102.50826 26964 ft 461 kts 264°
2026-04-27 11:07 27.91096 102.47174 25756 ft 466 kts 275°
2026-04-27 11:07 27.91755 102.43575 24621 ft 470 kts 285°
2026-04-27 11:07 27.92899 102.40170 24019 ft 451 kts 289°
2026-04-27 11:08 27.94011 102.36986 23920 ft 420 kts 289°
2026-04-27 11:08 27.95034 102.34008 23816 ft 394 kts 288°
2026-04-27 11:08 27.95981 102.31225 23632 ft 373 kts 288°
2026-04-27 11:08 27.96881 102.28555 23464 ft 354 kts 288°
2026-04-27 11:09 27.97737 102.26021 23281 ft 335 kts 288°
2026-04-27 11:09 27.98555 102.23629 23127 ft 318 kts 290°
2026-04-27 11:09 27.99784 102.21597 22979 ft 317 kts 317°
2026-04-27 11:09 28.01734 102.20458 22813 ft 320 kts 345°
2026-04-27 11:10 28.03990 102.20476 22219 ft 334 kts 15°
2026-04-27 11:10 28.06163 102.21462 21717 ft 340 kts 25°
2026-04-27 11:10 28.08267 102.22727 21199 ft 345 kts 29°
2026-04-27 11:10 28.10352 102.24110 20671 ft 349 kts 30°
2026-04-27 11:11 28.12437 102.25514 20148 ft 346 kts 30°
2026-04-27 11:11 28.14509 102.26877 19627 ft 343 kts 29°
2026-04-27 11:11 28.16578 102.28194 19110 ft 339 kts 28°
2026-04-27 11:11 28.18697 102.29320 18595 ft 335 kts 15°
2026-04-27 11:12 28.20969 102.29715 18097 ft 328 kts 357°
2026-04-27 11:12 28.23230 102.29619 17606 ft 323 kts 355°
2026-04-27 11:12 28.25458 102.29524 17146 ft 318 kts 356°
2026-04-27 11:12 28.27650 102.29443 16695 ft 313 kts 356°
2026-04-27 11:13 28.29814 102.29368 16251 ft 308 kts 356°
2026-04-27 11:13 28.31933 102.29298 15882 ft 302 kts 357°
2026-04-27 11:13 28.34004 102.29074 15403 ft 295 kts 340°
2026-04-27 11:13 28.35709 102.27899 14956 ft 284 kts 308°
2026-04-27 11:14 28.36624 102.25984 14482 ft 273 kts 278°
2026-04-27 11:14 28.36715 102.23896 14009 ft 267 kts 265°
2026-04-27 11:14 28.36653 102.21805 13495 ft 261 kts 264°
2026-04-27 11:14 28.36521 102.19810 13045 ft 245 kts 252°
2026-04-27 11:15 28.35761 102.18203 12704 ft 222 kts 224°
2026-04-27 11:15 28.34528 102.17295 12328 ft 204 kts 197°
2026-04-27 11:15 28.33215 102.17125 12030 ft 179 kts 176°
2026-04-27 11:15 28.32033 102.17170 11753 ft 162 kts 177°
2026-04-27 11:16 28.30952 102.17201 11514 ft 151 kts 177°
2026-04-27 11:16 28.29907 102.17230 11288 ft 150 kts 177°
2026-04-27 11:16 28.28866 102.17259 11058 ft 149 kts 176°
2026-04-27 11:16 28.27827 102.17291 10834 ft 150 kts 175°
2026-04-27 11:17 28.26786 102.17330 10620 ft 150 kts 175°
2026-04-27 11:17 28.25742 102.17371 10399 ft 151 kts 175°
2026-04-27 11:17 28.24693 102.17412 10185 ft 151 kts 174°
2026-04-27 11:17 28.23639 102.17454 9968 ft 152 kts 175°
2026-04-27 11:18 28.22584 102.17496 9731 ft 152 kts 175°
2026-04-27 11:18 28.21526 102.17538 9485 ft 152 kts 175°
2026-04-27 11:18 28.20469 102.17579 9273 ft 152 kts 175°
2026-04-27 11:18 28.19415 102.17621 9051 ft 151 kts 175°
2026-04-27 11:19 28.18363 102.17662 8834 ft 151 kts 175°
2026-04-27 11:19 28.17310 102.17703 8615 ft 151 kts 175°
2026-04-27 11:19 28.16259 102.17743 8398 ft 151 kts 176°
2026-04-27 11:19 28.15213 102.17784 8180 ft 150 kts 176°
2026-04-27 11:20 28.14172 102.17827 7967 ft 150 kts 176°
2026-04-27 11:20 28.13123 102.17869 7750 ft 154 kts 176°
2026-04-27 11:20 28.12013 102.17914 7529 ft 163 kts 176°
2026-04-27 11:20 28.10881 102.17961 7335 ft 162 kts 178°
2026-04-27 11:21 28.09778 102.18004 7058 ft 159 kts 178°
2026-04-27 11:21 28.08672 102.18046 6801 ft 159 kts 178°
2026-04-27 11:21 28.07571 102.18087 6565 ft 158 kts 177°
2026-04-27 11:21 28.06474 102.18130 6340 ft 157 kts 177°
2026-04-27 11:22 28.05384 102.18175 6116 ft 157 kts 176°
2026-04-27 11:22 28.04295 102.18219 5896 ft 156 kts 176°
2026-04-27 11:22 28.03214 102.18263 5663 ft 156 kts 176°
2026-04-27 11:22 28.02136 102.18306 5468 ft 155 kts 176°
2026-04-27 11:23 28.01061 102.18348 5250 ft 154 kts 178°
2026-04-27 11:23 28.00004 102.18389 5109 ft 145 kts 176°
2026-04-27 11:23 27.99110 102.18424 5089 ft 96 kts 178°
2026-04-27 11:23 27.98716 102.18438 5084 ft 35 kts 178°
2026-04-27 11:24 27.98463 102.18447 5080 ft 27 kts 178°
2026-04-27 11:24 27.98285 102.18455 5079 ft 17 kts 171°
2026-04-27 11:24 27.98248 102.18540 5078 ft 13 kts 104°
2026-04-27 11:24 27.98189 102.18604 5077 ft 15 kts 178°